Simultaneous Nadir Overpasses (SNOs) Predictions

Prediction of SNOs between METOP-A and NOAA-19 Satellite Orbit:

Table of predicted SNOs for the next 14.0 days since TLE Epoch: 2/2/2018
Index Date (METOP-A) Time (METOP-A) Lat,Lon (METOP-A) SZA (METOP-A ) Date (NOAA-19) Time (NOAA-19) Lat,Lon (NOAA-19) SZA (NOAA-19 ) Distance(km) Time Diff (sec)
1 02/11/2018 20:44:20 -78.52, 58.25 87.67 02/11/2018 20:43:16 -78.53, 53.90 87.72 96.37 64
2 02/11/2018 21:35:10 78.14,-136.53 91.91 02/11/2018 21:34:02 78.14,-136.43 91.91 2.44 68
3 02/11/2018 22:25:51 -78.14, 30.83 88.11 02/11/2018 22:25:07 -78.15, 30.76 88.10 1.75 44
4 02/11/2018 23:16:32 78.12,-161.98 91.86 02/11/2018 23:16:03 78.13,-161.86 91.88 3.17 29
5 02/12/2018 00:07:13 -78.12, 5.38 88.15 02/12/2018 00:07:08 -78.14, 5.32 88.13 2.30 5
6 02/12/2018 00:57:53 78.14, 172.78 91.86 02/12/2018 00:58:04 78.12, 172.70 91.84 2.56 11
7 02/12/2018 01:48:34 -78.10, -20.07 88.20 02/12/2018 01:49:08 -78.13, -20.11 88.17 3.17 34
8 02/12/2018 02:39:14 78.11, 147.33 91.81 02/12/2018 02:40:04 78.11, 147.26 91.81 1.72 50
9 02/12/2018 03:29:56 -78.08, -45.52 88.24 02/12/2018 03:31:09 -78.12, -45.55 88.20 4.16 73




NCC Satellite Simultaneous Nadir Overpasses (SNOs) Prediction Service
